Tracking 31027 objects as of 19-Jul-2025
HD Live streaming from Space Station
objects crossing your sky now

STARLINK-11645

Track STARLINK-11645 now!
10-day predictions
STARLINK-11645 is classified as:


NORAD ID: 63316
Int'l Code: 2025-057K
Perigee: 361.2 km
Apogee: 365.8 km
Inclination: 43.0 °
Period: 91.7 minutes
Semi major axis: 6734 km
RCS: Unknown
Launch date: March 18, 2025
Source: United States (US)
Launch site: AIR FORCE EASTERN TEST RANGE (AFETR)
Your satellite tracking list
SL-12 R/B(2)
Track 1 satellite(s)




NASA's NSSDC Master Catalog

Two Line Element Set (TLE):
1 63316U 25057K   25199.50684411  .00144823  00000-0  11100-2 0  9990
2 63316  43.0031 236.3834 0003420 275.4565  84.5913 15.70891068 20371
Source of the keplerian elements: AFSPC